This is the latest recevied weather packets stored in our database for station/object 4S6DRJ-13. If no packets are shown the sender has not sent any weather packets the latest 10 day(s).
| Time | Temp. | Humidity | Pressure | Rain* | Wind** | Luminosity | Snow |
|---|---|---|---|---|---|---|---|
| 1788102655 | 28.33° C | 82% | 1010.5 hPa | 0 mm | 0 m/s | 0 W/m² | - |
| 1788102594 | 28.33° C | 82% | 1010.6 hPa | 0 mm | 0.89 m/s, 238° | 0 W/m² | - |
| 1788102533 | 28.33° C | 82% | 1010.4 hPa | 0 mm | 1.79 m/s, 234° | 0 W/m² | - |
| 1788102472 | 28.33° C | 82% | 1010.3 hPa | 0 mm | 0.89 m/s, 228° | 0 W/m² | - |
| 1788102410 | 28.33° C | 82% | 1010.4 hPa | 0 mm | 0.89 m/s, 210° | 0 W/m² | - |
| 1788102349 | 28.33° C | 82% | 1010.5 hPa | 0 mm | 0.89 m/s, 188° | 0 W/m² | - |
| 1788102298 | 28.33° C | 82% | 1010.6 hPa | 0 mm | 1.79 m/s, 247° | 0 W/m² | - |
| 1788102228 | 28.33° C | 82% | 1010.4 hPa | 0 mm | 0.45 m/s, 257° | 0 W/m² | - |
| 1788102166 | 28.33° C | 82% | 1010.7 hPa | 0 mm | 0.89 m/s, 225° | 0 W/m² | - |
| 1788102105 | 28.33° C | 83% | 1010.5 hPa | 0 mm | 1.34 m/s, 243° | 0 W/m² | - |
| 1788102045 | 28.33° C | 83% | 1010.5 hPa | 0 mm | 0.89 m/s, 243° | 0 W/m² | - |
| 1788101984 | 28.33° C | 83% | 1010.5 hPa | 0 mm | 1.34 m/s, 219° | 0 W/m² | - |
| 1788101923 | 28.33° C | 83% | 1010.6 hPa | 0 mm | 0.89 m/s, 287° | 0 W/m² | - |
| 1788101862 | 28.33° C | 83% | 1010.5 hPa | 0 mm | 2.68 m/s, 245° | 0 W/m² | - |
| 1788101801 | 28.33° C | 83% | 1010.5 hPa | 0 mm | 1.79 m/s, 227° | 0 W/m² | - |
| 1788101740 | 28.33° C | 83% | 1010.5 hPa | 0 mm | 0.89 m/s, 189° | 0 W/m² | - |
| 1788101679 | 28.33° C | 83% | 1010.5 hPa | 0 mm | 1.34 m/s, 274° | 0 W/m² | - |
| 1788101623 | 28.33° C | 82% | 1010.3 hPa | 0 mm | 1.79 m/s, 121° | 0 W/m² | - |
| 1788101557 | 28.33° C | 82% | 1010.4 hPa | 0 mm | 1.34 m/s, 99° | 0 W/m² | - |
| 1788101495 | 28.33° C | 82% | 1010.2 hPa | 0 mm | 0.89 m/s, 216° | 0 W/m² | - |
| 1788101434 | 28.33° C | 82% | 1010.3 hPa | 0 mm | 1.79 m/s, 247° | 0 W/m² | - |
| 1788101373 | 28.33° C | 82% | 1010.3 hPa | 0 mm | 1.79 m/s, 233° | 0 W/m² | - |
| 1788101312 | 28.33° C | 82% | 1010.4 hPa | 0 mm | 1.79 m/s, 245° | 0 W/m² | - |
| 1788101252 | 28.33° C | 82% | 1010.4 hPa | 0 mm | 0.89 m/s, 223° | 0 W/m² | - |
| 1788101191 | 28.33° C | 82% | 1010.3 hPa | 0 mm | 1.34 m/s, 225° | 0 W/m² | - |
* Rain latest hour (hover to see other rain measurements)
** Current wind speed in m/s (hover to see current wind gust speed)